Met observations

Date (UTC) Wind direction m/s kts. Vis. * Weather * Cloud * Temperature (°C) Dew point (°C) Air pressure (Hp)
18-06 01:59 4 07 VIS 10 km FEW 2000ft 8.3 7.5 1003.1
18-06 01:49 3 05 VIS 10 km FEW 2000ft 8.3 7.5 1003.2
18-06 01:39 3 05 VIS 10 km FEW 2000ft 8.3 7.5 1003.2
18-06 01:29 4 07 VIS 10 km FEW 2000ft 8.3 7.5 1003.4
18-06 01:19 3 06 VIS 10 km FEW 2000ft 8.3 7.5 1003.4
18-06 01:09 3 05 VIS 10 km FEW 2000ft 8.6 7.6 1003.4
18-06 00:59 3 06 VIS 10 km FEW 2000ft 8.6 7.6 1003.4
18-06 00:49 2 04 VIS 10 km FEW 2000ft 8.5 7.5 1003.4
18-06 00:39 2 04 VIS 10 km FEW 2000ft 8.5 7.5 1003.4
18-06 00:29 3 05 VIS 10 km FEW 2000ft 8.5 7.5 1003.4
18-06 00:19 2 04 VIS 10 km FEW 2000ft 8.6 7.6 1003.5
18-06 00:04 3 05 VIS 10 km FEW 2000ft 8.5 7.5 1003.6
17-06 23:59 2 04 VIS 10 km FEW 2000ft 8.5 7.5 1003.6
17-06 23:49 3 05 VIS 10 km FEW 2000ft 8.6 7.7 1003.6
17-06 23:34 2 03 VIS 10 km FEW 2000ft 8.5 7.6 1003.6
17-06 23:29 1 02 VIS 10 km FEW 2000ft 8.6 7.7 1003.6
17-06 23:19 2 04 VIS 10 km FEW 2000ft 8.6 7.6 1003.6
17-06 23:09 3 05 VIS 10 km FEW 2000ft 8.6 7.6 1003.6
17-06 22:59 2 04 VIS 10 km FEW 2000ft 8.8 7.6 1003.6
17-06 22:49 3 05 VIS 10 km FEW 2000ft 9.1 7.7 1003.6
17-06 22:39 2 04 VIS 10 km FEW 2000ft 9.3 7.5 1003.6
17-06 22:29 3 06 VIS 10 km FEW 2000ft 8.6 6.9 1003.6
17-06 22:19 0 00 VIS 10 km FEW 2000ft 8.7 7.0 1003.6
17-06 22:09 1 02 VIS 10 km FEW 2000ft 8.9 6.9 1003.6
17-06 21:59 2 03 VIS 10 km FEW 2000ft 9.1 7.0 1003.6
17-06 21:49 3 06 VIS 10 km FEW 2000ft 9.2 7.1 1003.6
17-06 21:39 3 05 VIS 10 km FEW 2000ft 9.3 7.3 1003.6
17-06 21:29 3 05 VIS 10 km FEW 2000ft 9.3 7.5 1003.6
17-06 21:19 4 07 VIS 10 km FEW 2000ft 9.3 7.5 1003.6
17-06 21:09 3 06 VIS 10 km FEW 2000ft 9.4 7.6 1003.5
17-06 20:59 4 07 VIS 10 km FEW 2000ft 9.4 7.5 1003.6
17-06 20:49 4 08 VIS 10 km FEW 2000ft 9.8 7.7 1003.5
17-06 20:39 4 08 VIS 10 km FEW 2000ft 10.5 7.8 1003.5
17-06 20:29 3 06 VIS 10 km FEW 2000ft 10.6 7.4 1003.5
17-06 20:19 3 06 VIS 10 km FEW 2000ft 10.9 7.3 1003.5
17-06 20:09 4 07 VIS 10 km FEW 2000ft 10.8 6.8 1003.5
17-06 19:59 4 07 VIS 10 km FEW 2000ft 11.1 7.0 1003.5
17-06 19:49 4 07 VIS 10 km FEW 2000ft 11.3 6.5 1003.5
17-06 19:39 3 06 VIS 10 km FEW 2000ft 11.4 7.1 1003.4
17-06 19:29 3 06 VIS 10 km FEW 2000ft 11.3 6.4 1003.4
17-06 19:19 3 06 VIS 10 km FEW 2000ft 11.3 6.6 1003.4
17-06 19:09 4 07 VIS 10 km FEW 2000ft 11.3 6.7 1003.1
17-06 18:59 3 06 VIS 10 km FEW 2000ft 11.4 6.8 1003.1
17-06 18:49 3 06 VIS 10 km FEW 2000ft 12.2 7.2 1003.1
17-06 18:39 3 06 VIS 10 km FEW 2000ft 12.2 6.5 1003.1
17-06 18:29 3 05 VIS 10 km FEW 2000ft 12.1 6.6 1003.1
17-06 18:19 3 06 VIS 10 km FEW 2000ft 12.3 7.4 1003.1
17-06 18:09 3 06 VIS 10 km FEW 2000ft 12.2 7.3 1003.2
17-06 17:59 4 07 VIS 10 km FEW 2000ft 12.4 7.7 1003.2
17-06 17:49 4 07 VIS 10 km FEW 2000ft 12.2 7.7 1003.2
17-06 17:39 4 07 VIS 10 km FEW 2000ft 12.3 7.2 1003.2
17-06 17:29 3 05 VIS 10 km FEW 2000ft 12.2 7.1 1003.4
17-06 17:19 2 04 VIS 10 km FEW 2000ft 12.3 6.6 1003.4
17-06 17:09 3 05 VIS 10 km FEW 2000ft 12.4 7.1 1003.4
17-06 16:59 2 04 VIS 10 km FEW 2000ft 12.4 7.1 1003.4
17-06 16:49 3 06 VIS 10 km FEW 2000ft 12.7 7.3 1003.4
17-06 16:39 4 08 VIS 10 km FEW 2000ft 12.5 7.4 1003.5
17-06 16:29 4 07 VIS 10 km FEW 2000ft 12.1 6.9 1003.5
17-06 16:19 2 04 VIS 10 km FEW 2000ft 12.6 6.7 1003.5
17-06 16:09 2 03 VIS 10 km FEW 2000ft 13.0 7.8 1003.5
17-06 15:59 2 04 VIS 10 km FEW 2000ft 12.7 7.3 1003.6
17-06 15:49 2 04 VIS 10 km FEW 2000ft 13.4 7.9 1003.7
17-06 15:39 3 05 VIS 10 km FEW 2200ft 12.6 7.3 1003.8
17-06 15:29 3 06 VIS 10 km FEW 2200ft 12.6 7.4 1003.8
17-06 15:19 3 05 VIS 10 km FEW 2200ft 13.0 8.1 1003.9
17-06 15:09 3 05 VIS 10 km FEW 2200ft 12.9 7.1 1004.0
17-06 14:59 3 06 VIS 10 km FEW 2200ft 13.3 7.4 1003.9
17-06 14:49 4 07 VIS 10 km FEW 2200ft 13.1 6.8 1004.0
17-06 14:39 3 06 VIS 10 km FEW 2200ft 12.8 6.7 1004.0
17-06 14:29 4 07 VIS 10 km FEW 2200ft 12.8 7.1 1004.0
17-06 14:19 3 06 VIS 10 km FEW 2200ft 13.2 7.8 1004.1
17-06 14:09 4 07 VIS 10 km FEW 2200ft 12.7 7.0 1004.1
17-06 13:59 3 06 VIS 10 km FEW 500ft BKN 6500ft SCT 8000ft 12.3 6.5 1004.1
17-06 13:49 2 04 VIS 10 km FEW 500ft BKN 6500ft SCT 8000ft 12.6 7.1 1004.2
17-06 13:39 3 05 VIS 10 km FEW 500ft BKN 6500ft SCT 8000ft 13.0 8.4 1004.1
17-06 13:29 3 06 VIS 10 km FEW 500ft BKN 6500ft SCT 8000ft 12.3 7.8 1004.1
17-06 13:19 3 06 VIS 10 km FEW 500ft BKN 6500ft SCT 8000ft 12.0 7.9 1004.2
17-06 13:09 4 07 VIS 10 km FEW 500ft BKN 6500ft SCT 8000ft 12.2 8.4 1004.2
17-06 12:59 4 08 VIS 10 km FEW 500ft BKN 6500ft SCT 8000ft 12.0 8.1 1004.3
17-06 12:49 4 08 VIS 10 km FEW 500ft BKN 6500ft SCT 8000ft 11.6 8.1 1004.4
17-06 12:39 3 06 VIS 10 km FEW 500ft BKN 6500ft SCT 8000ft 12.3 8.7 1004.5
17-06 12:29 3 06 VIS 10 km FEW 500ft BKN 6500ft SCT 8000ft 12.0 8.6 1004.6
17-06 12:19 4 08 VIS 10 km FEW 500ft BKN 6500ft SCT 8000ft 11.8 8.6 1004.6
17-06 12:09 4 08 VIS 10 km FEW 500ft BKN 6500ft SCT 8000ft 11.0 7.9 1004.7
17-06 11:59 4 08 VIS 10 km FEW 500ft BKN 6500ft SCT 8000ft 11.6 8.4 1004.7
17-06 11:44 5 09 VIS 10 km FEW 500ft BKN 6500ft SCT 8000ft 11.4 8.1 1004.6
17-06 11:34 4 08 VIS 10 km FEW 500ft BKN 6500ft SCT 8000ft 11.2 7.8 1004.6
17-06 11:29 4 08 VIS 10 km FEW 500ft BKN 6500ft SCT 8000ft 11.2 8.0 1004.7
17-06 11:19 4 07 VIS 10 km FEW 500ft BKN 6500ft SCT 8000ft 11.6 8.7 1004.7
17-06 11:09 4 07 VIS 10 km FEW 500ft BKN 6500ft SCT 8000ft 11.3 8.4 1004.6
17-06 10:59 4 07 VIS 10 km FEW 500ft BKN 6500ft SCT 8000ft 11.3 8.5 1004.6
17-06 10:53 4 07 VIS 10 km FEW 500ft BKN 6500ft SCT 8000ft 11.4 9.1 1004.6

Met data is updated every half hour and is for information only.
* Visibility, weather and cloud values are updated during the airport’s service hours only.
Flight planning documentation is available on opmet.dmi.dk.
For meteorological abbreviations, click here